User: anonymous   Login
Location: Unspecified
(0.0000°N, 0.0000°E)
Time: 16:14:44
(UTC+00:00)
Language:

Explorer 11/Cluster Stage 4 - Orbit

View from above orbital plane
View from above orbital plane
View from above satellite
View from above satellite

Ground track
Ground track

The orbit data is extracted from the following two-line orbital elements,

1   107U 61013A   18347.22338808  .00000262  00000-0  17188-4 0  9995
2   107  28.7877  59.6410 0547940  88.5576 277.7667 14.08694048887832
Epoch (UTC): 13 December 2018 05:21:40
Eccentricity: 0.0547940
inclination: 28.7877°
perigee height: 467 km
apogee height: 1260 km
right ascension of ascending node: 59.6410°
argument of perigee: 88.5576°
revolutions per day: 14.08694048
mean anomaly at epoch: 277.7667°
orbit number at epoch: 88783

The dashed part of the orbit path shows where the satellite is in the earth's shadow,  

DLR